COSMOS 2251 DEB, 34758

Orbit data source: Space-Track

COSMOS 2251 DEB, 34758 is space debris in LEO originally from a launch on Wed, 16 Jun 1993 UTC launched from the Plesetsk Missile And Space Complex (PKMTR). The debris from Iridium 33, an American commercial communications satellite, has been tracked extensively since its accidental collision with the defunct Russian satellite Cosmos 2251 in 2009. This event, occurring at high speed in low Earth orbit (LEO), generated thousands of pieces of space debris, significantly increasing the risk of further collisions. The Iridium 33 debris cloud has impacted space traffic management and orbital debris mitigation strategies, making it a subject of ongoing study in space situational awareness.

Loading next visibility...
Identifier
34758, 1993-036AAC
Orbit
LEO
Country
Flag of CISCIS
Related business
Manufacturer
Unknown
Mission
Spacecraft
Bus & Motor
Unknown
Mass
Unknown
Launch date (UTC)
1993-06-16 (33 years ago)
Launch vehicle
Unknown
Launch site
Plesetsk Missile And Space Complex (PKMTR)
Object type
Payload
Rocket body
Debris
Shape & HBR
Unknown shape, 0.1 m
Radar Cross Section
Small (<0.1 m²)

Expand to show TLE details & history
Last TLE update: 6 hours ago

TLE from 6 hours ago
0 COSMOS 2251 DEB
1 34758U 93036AAC 26125.15872137  .00000940  00000-0  80756-3 0  9990
2 34758  74.1051  68.5537 0386753 159.5775 202.1298 13.58458780848577
Epoch: 2026-05-05T03:48Z
TLE epoch observation values (Epoch: 2026-05-05T03:48:33.526Z)
Latitude
-0.00005°
Longitude
148.37642°
Altitude
1,311.174 km
Speed
7.071 km/s
True Right ascension
04h 34m 12s
True Declination
0° 00' 00"
Sunlit
Object was in daylight at epoch
Visualization orbit readout
Latitude
Unknown
Longitude
Unknown
Altitude
Unknown
Speed
Unknown
Apparent Right ascension
Unknown
Apparent Declination
Unknown
Sunlit
N/A
Visualization observer readout
Local Sidereal Time
17:20:48
Azimuth
Unknown
Elevation
Unknown
Doppler factor
Unknown
Orbital elements
Apogee altitude
1,325.858 km
Perigee altitude
752.138 km
Semi-major axis
7,417.135 km
Eccentricity
0.03868
Inclination
74.1051°
RAAN
68.5537°
Arg. of periapsis
159.5775°
True anomaly
200.53217°
Mean anomaly
202.1298°
Eccentric anomaly
201.324°
Mean motion
3.39773 °/min
Orbital period
105.95 mins
BSTAR
0.00080756
Loading maneuver chart data...
Computing Atmospheric mass density...

Documentation

Showing up to 5 results
|